Regional Weather Roundup
Issued by NWS

Home | Current Version | Previous Version | Graphics & Text | Print | Product List | Glossary On
Versions: 1 2 3 4 5 6 7 8 9 10 11 12 13 14 15 16 17 18 19 20 21 22 23 24 25 26 27 28 29 30 31 32 33 34 35 36 37 38 39 40 41 42 43 44 45 46 47 48 49 50
000
ASUS43 KFSD 051002
RWRSD

WEATHER ROUNDUP FOR SOUTH DAKOTA
NATIONAL WEATHER SERVICE SIOUX FALLS SD
500 AM CDT SAT SEP 05 2015

NOTE: "FAIR" INDICATES FEW OR NO CLOUDS BELOW 12,000 FEET WITH NO
SIGNIFICANT WEATHER AND/OR OBSTRUCTIONS TO VISIBILITY.


SDZ001>005-009-010-012>017-051100-
NORTHWEST AND NORTH CENTRAL SOUTH DAKOTA

CITY           SKY/WX    TMP DP  RH WIND       PRES   REMARKS
BUFFALO          N/A     64  60  87 NE18      29.76F
FAITH            N/A     70  63  78 N14       29.80R
MOBRIDGE       MOCLDY    71  71 100 E7        29.76F
$$

SDZ012>016-024>037-041>051-057-063-072>074-051100-
SOUTHWEST AND SOUTH CENTRAL SOUTH DAKOTA

CITY           SKY/WX    TMP DP  RH WIND       PRES   REMARKS
RAPID CTY ARPT LGT RAIN  66  61  84 N14       29.82R
PIERRE         PTCLDY    68  66  93 E6        29.74F
CUSTER         LGT RAIN  61  52  72 NW5       29.98S
PHILIP         MOCLDY    66  64  93 E10       29.75F
PINE RIDGE     LGT RAIN  71  56  58 S10G23    29.84R
WINNER         FAIR      75  62  64 S10       29.78S
$$

SDZ004>011-016>023-039-040-051100-
NORTHEAST SOUTH DAKOTA

CITY           SKY/WX    TMP DP  RH WIND       PRES   REMARKS
ABERDEEN       CLEAR     68  66  93 NE6       29.80S FOG
WATERTOWN      PTCLDY    71  67  87 S9        29.84S
BROOKINGS      PTCLDY    70  66  88 SE9       29.87S
$$

SDZ017-020-022-023-036>040-048>070-051100-
SOUTHEAST SOUTH DAKOTA

CITY           SKY/WX    TMP DP  RH WIND       PRES   REMARKS
SIOUX FALLS    PTCLDY    73  67  81 S10       29.85S
HURON          CLEAR     71  68  90 SE8       29.79R
CHAMBERLAIN    PTCLDY    67  67  98 E6        29.78S
MITCHELL       CLEAR     71  68  90 SE8       29.80R
YANKTON        CLEAR     73  66  78 S8        29.81R
$$

ABBREVIATIONS USED IN REMARKS
   TC - TEMPERATURE IN CELSIUS
  WCI - WIND CHILL INDEX
   HX - HEAT INDEX
  VSB - VISIBILITY



USA.gov is the U.S. government's official web portal to all federal, state and local government web resources and services.